Location: Boleita
(10.4833°N, 66.8167°W)
Time: 03:04:47
(UTC+00:00)

Cosmos 2123 Rocket - Pass Details

Date: 08 November 2025
Orbit: 960 x 991 km, 82.9° (Epoch: 09 December)

Event Time Altitude Azimuth Distance (km) Brightness Sun altitude
Rises 08:52:13 0° 183° (S) 3,683 7.2 -21.7°
Reaches altitude 10° 08:54:44 10° 183° (S) 2,731 6.5 -21.1°
Maximum altitude 09:01:01 89° 270° (W) 980 3.9 -19.6°
Drops below altitude 10° 09:07:14 10° 3° (N) 2,708 6.2 -18.1°
Sets 09:09:43 0° 4° (N) 3,651 6.9 -17.5°
